Location: PACMO
(41.3967°N, 90.3760°W)
Time: 03:26:14
(UTC-05:00)

Daily predictions for brighter satellites

Satellite Brightness Start Highest point End
(mag) Time Altitude Azimuth Time Altitude Azimuth Time Altitude Azimuth
Cosmos 1758 Rocket 4.0 00:07:46 55° WNW 00:07:46 55° WNW 00:11:50 10° N
H-2A R/B 4.1 00:09:07 19° W 00:09:29 19° W 00:12:41 10° NW
Orbus 7S? 4.4 00:06:48 10° NW 00:10:49 41° WNW 00:10:49 41° WNW
ATLAS CENTAUR R/B 2.4 00:08:26 10° NNW 00:10:49 38° NNW 00:10:49 38° NNW
ARGOS Delta rocket 4.1 00:13:19 10° NNE 00:18:40 69° E 00:18:44 68° ESE
SL-16 R/B 2.1 00:19:34 10° NNW 00:25:14 71° WSW 00:25:26 70° SW
Cosmos 972 4.4 00:20:26 10° NNW 00:25:52 78° ENE 00:25:53 78° ENE
Terra 4.2 00:30:03 12° W 00:30:40 12° W 00:32:24 10° WNW
CZ-2C R/B 3.1 00:39:13 76° SW 00:39:26 78° WSW 00:45:08 10° NNW
Cosmos 1302 Rocket 4.1 00:36:07 10° NNW 00:41:09 68° W 00:41:09 68° W
Cosmos 1339 Rocket 4.3 00:42:21 70° S 00:43:10 89° E 00:49:33 10° N
ALOS 2 3.1 00:44:27 55° NW 00:44:27 55° NW 00:48:02 10° NNW
Cosmos 1727 Rocket 3.8 00:43:32 70° SSW 00:44:19 86° W 00:50:37 10° N
Cosmos 2322 3.8 00:45:03 10° NNW 00:50:41 64° ENE 00:51:19 60° E
USA 267 3.4 00:45:27 10° NE 00:51:58 72° NW 00:55:15 32° WSW
Cosmos 1605 Rocket 4.1 00:46:54 10° NNW 00:52:51 58° W 00:53:30 55° WSW
SeaSat 1 2.5 00:53:41 67° WNW 00:53:41 67° WNW 00:58:10 10° NNW
ISS -0.9 00:53:56 10° NNW 00:56:15 17° NNE 00:57:37 14° NE
Cosmos 1833 4.0 00:56:14 83° SW 00:56:28 88° WNW 01:02:11 10° NNE
Meteor 2-15 4.4 00:56:19 64° SW 00:57:04 71° W 01:03:09 10° N
Lacrosse 5 2.6 00:56:51 42° W 00:57:59 50° NW 01:02:56 10° NE
Cosmos 1340 Rocket 4.4 01:02:01 29° NE 01:02:01 29° NE 01:04:23 10° NNE
Okean 3 Rocket 4.3 01:04:03 48° ENE 01:04:03 48° ENE 01:07:46 10° NNE
Meteor 2-5 Rocket 4.4 01:02:43 44° WSW 01:03:42 48° WNW 01:09:27 10° N
Cosmos 2219 3.9 01:04:29 41° E 01:04:29 41° E 01:09:26 10° NE
Cosmos 2360 Rocket 2.0 00:58:48 10° NNW 01:04:29 84° WSW 01:04:36 83° SW
NOSS 3-1 (C) 4.4 00:57:56 10° NW 01:05:16 48° WSW 01:06:22 45° SW
Cosmos 1153 Rocket 4.5 01:00:13 10° NNW 01:06:24 67° W 01:07:06 62° SW
COSMOS 2428 3.4 01:02:55 10° NNW 01:08:30 49° ENE 01:09:55 41° ESE
Cosmos 2173 Rocket 3.9 01:03:03 10° N 01:09:10 74° E 01:09:56 65° SE
Cosmos 2084 Rocket 4.5 01:12:29 39° NNW 01:12:29 39° NNW 01:15:41 10° NNE
Cosmos 2098 Rocket 4.4 01:07:51 10° NNW 01:12:10 37° W 01:12:10 37° W
CZ-4B R/B 3.7 01:16:48 22° N 01:16:48 22° N 01:18:07 10° N
Cosmos 2322 Rocket 3.6 01:11:55 10° NW 01:16:00 26° W 01:16:00 26° W
Lacrosse 5 rocket 3.1 01:13:29 10° NW 01:15:50 27° WNW 01:15:50 27° WNW
Landsat 5 3.9 01:20:17 66° NNE 01:20:17 66° NNE 01:24:21 10° N
Cosmos 2221 3.0 01:19:33 10° N 01:22:59 56° N 01:22:59 56° N
Cosmos 1908 4.4 01:20:33 10° N 01:23:26 42° NNE 01:23:26 42° NNE
USA 234 3.5 01:21:19 20° ESE 01:26:05 69° NE 01:32:34 10° NW
Cosmos 1459 Rocket 3.9 01:24:13 10° N 01:30:35 75° W 01:31:27 65° SSW
Meteor 2-6 4.5 01:25:09 10° N 01:30:43 84° W 01:30:55 81° SW
Geosat 4.0 01:27:51 10° NNE 01:32:53 73° WNW 01:33:03 72° W
CZ-2C R/B 4.0 01:28:35 10° N 01:33:19 29° WNW 01:34:42 26° W
Cosmos 1242 Rocket 4.2 01:35:23 10° N 01:37:46 31° NE 01:37:46 31° NE
ATLAS 2AS CENTAUR R/B 3.3 01:30:48 10° NNW 01:38:50 66° NE 01:43:52 23° SE
Cosmos 2333 Rocket 3.2 01:35:18 10° NNW 01:40:44 43° ENE 01:43:19 27° ESE
Cosmos 1076 Rocket 3.9 01:46:38 59° NNW 01:46:38 59° NNW 01:50:20 10° N
NOSS 3-3 (A) 4.1 01:45:42 54° SE 01:46:20 56° ESE 01:52:44 10° NE
Cosmos 2297 Rocket 3.7 01:45:42 23° ESE 01:46:24 24° ESE 01:50:47 10° NE
NOSS 3-3 (C) 4.1 01:45:49 53° SE 01:46:26 55° ESE 01:52:49 10° NE
Cosmos 2219 Rocket 2.6 01:42:00 10° NNW 01:47:38 59° ENE 01:49:22 41° ESE
Cosmos 1674 3.7 01:50:36 44° NNW 01:50:36 44° NNW 01:53:25 10° N
Cosmos 1802 Rocket 4.0 01:44:53 10° NNW 01:51:03 61° W 01:51:50 56° SW
Cosmos 2016 Rocket 4.0 01:47:26 10° NNW 01:53:48 70° W 01:54:50 60° SW
Cosmos 2100 Rocket 4.4 01:48:58 10° NNW 01:54:46 44° W 01:55:24 43° WSW
Cosmos 1726 3.1 01:56:28 10° N 01:59:25 46° NNE 01:59:25 46° NNE
SL-14 R/B 4.1 02:02:50 45° ENE 02:02:50 45° ENE 02:06:20 10° NNE
Cosmos 2237 Rocket 2.9 02:01:57 10° NNW 02:07:26 48° ENE 02:10:33 24° SE
Cosmos 1328 Rocket 3.7 02:03:54 10° N 02:08:20 69° E 02:08:20 69° E
SL-16 R/B 4.3 02:04:11 10° N 02:08:42 24° NE 02:13:12 10° ESE
Cosmos 1151 Rocket 4.1 02:06:20 10° N 02:10:24 38° ENE 02:11:08 35° ESE
SL-8 R/B 4.0 02:09:55 52° WNW 02:10:45 62° NNW 02:15:31 10° ENE
Cosmos 1300 3.3 02:08:37 10° N 02:11:53 56° NNE 02:11:53 56° NNE
Meteor 2-10 4.3 02:08:56 10° N 02:14:01 62° ENE 02:15:17 47° SE
Cosmos 1954 Rocket 3.9 02:17:53 65° SSE 02:18:32 75° ESE 02:23:47 10° NNE
Cosmos 407 Rocket 3.6 02:18:35 55° W 02:19:11 59° WNW 02:24:17 10° NNE
Resurs 1-4 Rocket 4.1 02:17:17 10° NE 02:21:01 19° E 02:23:39 14° SE
Cosmos 2123 Rocket 4.2 02:20:10 48° WSW 02:21:29 57° W 02:27:35 10° N
Helios 1A Rocket 2.9 02:18:36 10° NNE 02:22:38 82° NE 02:22:38 82° NE
H-2A R/B 3.5 02:19:43 10° N 02:23:39 36° WNW 02:23:39 36° WNW
Cosmos 2227 Rocket 2.3 02:22:51 52° SSE 02:23:57 63° ESE 02:29:34 10° NNE
Cosmos 2228 Rocket 3.0 02:21:30 10° N 02:26:01 81° W 02:26:03 81° WSW
Cosmos 1447 Rocket 4.4 02:26:01 51° S 02:27:46 89° ESE 02:34:07 10° N
Cosmos 2058 3.3 02:32:09 51° ESE 02:32:24 52° E 02:36:25 10° NNE
ISS -0.9 02:30:00 10° NW 02:30:10 11° NW 02:30:10 11° NW
Cosmos 2233 Rocket 3.9 02:28:17 10° N 02:34:37 77° W 02:36:35 47° S
Cosmos 676 Rocket 4.2 02:35:53 52° WSW 02:36:52 61° WNW 02:42:07 10° NNE
Lacrosse 5 4.4 02:38:40 10° WNW 02:42:02 17° NNW 02:45:24 10° NNE
CZ-2D R/B 3.6 02:38:13 10° NE 02:42:43 29° E 02:45:23 19° SE
Cosmos 1328 4.3 02:45:10 47° WNW 02:45:10 47° WNW 02:48:48 10° N
Cosmos 2219 4.5 02:46:23 23° W 02:48:26 29° NW 02:53:19 10° N
NOSS 0 Rocket 4.0 02:44:28 10° NNW 02:50:34 59° WSW 02:52:26 42° SSW
ERBS 4.1 02:50:47 24° NW 02:51:14 25° NW 02:54:06 10° NNE
COSMOS 2428 4.0 02:47:55 10° NW 02:51:54 24° W 02:51:54 24° W
Cosmos 1455 3.1 02:51:10 10° N 02:54:55 45° ENE 02:56:14 32° SE
Cosmos 1500 Rocket 3.7 02:54:48 53° WSW 02:55:13 55° W 02:59:36 10° N
Cosmos 2082 3.6 02:53:37 47° SSW 02:55:20 85° WNW 03:00:59 10° NNE
IRS-1C 4.3 02:52:32 10° NNE 02:57:51 66° ESE 02:59:58 36° S
SL-08 R/B 3.3 02:57:01 41° SSE 02:58:47 88° WSW 03:03:47 10° NNW
Lacrosse 4 Rocket 2.7 03:02:51 26° SE 03:03:53 30° ESE 03:07:34 10° NE
AQUA 3.7 02:59:39 10° NNE 03:04:26 87° ESE 03:05:53 46° S
Cosmos 1464 Rocket 3.9 03:02:20 10° N 03:08:32 87° E 03:12:16 25° S
USA 234 3.7 03:08:35 34° SW 03:09:20 35° SW 03:15:13 10° WNW
Cosmos 1805 Rocket 3.9 03:07:50 36° SSE 03:09:26 62° E 03:13:49 10° NNE
Cosmos 1626 2.0 03:09:45 66° WSW 03:10:02 70° W 03:13:46 10° N
Cosmos 2208 Rocket 4.0 03:04:56 10° NNW 03:10:09 84° ENE 03:13:46 21° SSE
Meteor 1-11 4.4 03:09:22 38° SW 03:11:22 58° WNW 03:17:04 10° N
Cosmos 1900 4.3 03:11:23 43° SW 03:12:56 74° WNW 03:17:58 10° NNE
Meteor 1-27 4.4 03:07:24 10° NNW 03:13:06 60° W 03:15:28 35° SSW
Cosmos 1241 Rocket 4.4 03:07:45 10° NNW 03:14:15 84° WSW 03:20:33 10° SSE
ADEOS Rocket 3.6 03:07:46 10° NNE 03:15:19 77° ESE 03:20:34 23° S
DELTA 2 R/B (1) 3.6 03:15:05 37° SW 03:17:06 60° SSE 03:22:34 10° E
IRS-1D 3.8 03:15:08 10° NNE 03:20:28 66° ESE 03:23:25 26° S
Cosmos 614 Rocket 4.5 03:18:52 33° WSW 03:20:43 47° WNW 03:25:47 10° N
IRS-P3 4.5 03:16:33 10° N 03:21:42 51° WNW 03:23:48 32° SW
Cosmos 1869 4.1 03:18:26 10° N 03:22:22 50° E 03:25:10 18° SSE
NOSS 2-1 (D) 4.5 03:22:14 27° W 03:23:30 34° NW 03:27:29 10° NNE
NOSS 2-1 (C) 4.4 03:22:23 28° W 03:23:39 35° NW 03:27:38 10° NNE
Cosmos 1140 Rocket 4.4 03:22:02 27° WSW 03:23:56 36° WNW 03:28:44 10° N
Cosmos 2333 Rocket 3.1 03:20:01 10° NW 03:24:45 27° WSW 03:25:15 27° WSW
Cosmos 1703 3.8 03:27:38 38° WSW 03:28:15 41° WNW 03:31:59 10° N
Aureole 2 Rocket 4.0 03:25:10 10° NW 03:28:13 27° W 03:28:13 27° W
Cosmos 2151 4.1 03:28:22 27° W 03:29:03 28° WNW 03:32:45 10° NNW
ATLAS 2AS CENTAUR R/B 3.7 03:22:43 10° NW 03:29:15 29° WSW 03:31:13 26° SW
Cosmos 2297 Rocket 2.7 03:27:30 29° WSW 03:30:04 49° WNW 03:35:34 10° NNE
NOSS 3-4 (A) 4.1 03:23:33 10° NNW 03:30:36 73° NE 03:38:06 10° SE
NOSS 3-4 (C) 4.1 03:23:39 10° NNW 03:30:42 72° NE 03:38:12 10° SE
Cosmos 2219 Rocket 3.6 03:27:07 10° NW 03:31:03 20° W 03:31:03 20° W
Cosmos 1980 4.5 03:27:44 10° NW 03:32:41 31° WSW 03:33:55 28° SW
Sich 1 3.1 03:34:32 28° S 03:36:48 81° E 03:41:11 10° N
Cosmos 1633 Rocket 3.3 03:34:27 24° S 03:36:59 67° E 03:41:19 10° NNE
Cosmos 1356 4.2 03:40:52 34° WSW 03:41:28 37° WNW 03:44:46 10° N
Cosmos 332 Rocket 4.4 03:41:47 10° NNW 03:46:34 57° ENE 03:51:21 10° SSE
SL-16 R/B 2.6 03:43:23 16° S 03:48:18 60° WSW 03:54:26 10° NNW
UNKNOWN OBJECT B 3.2 03:46:04 10° NNE 03:50:02 59° E 03:52:49 18° S
MOS 1 Rocket 4.2 03:45:01 10° NNE 03:50:08 55° E 03:55:15 11° S
Cosmos 2237 Rocket 3.3 03:46:45 10° NW 03:51:06 24° W 03:52:19 22° WSW
SL-16 R/B 2.3 03:47:38 10° NNW 03:53:11 55° WSW 03:58:41 10° S
ATLAS 5 CENTAUR R/B 3.7 03:50:00 10° SSE 03:53:29 21° ESE 03:57:10 10° ENE
ADEOS 3.6 03:51:11 10° N 03:56:22 66° WNW 03:59:53 21° SSW
Cosmos 2227 4.4 03:56:31 17° S 04:01:02 70° ESE 04:06:47 10° NNE
Resurs 1-4 Rocket 2.4 03:55:59 10° N 04:01:09 54° WNW 04:04:44 20° SW
ARIANE 5 R/B 2.8 04:00:27 10° N 04:05:23 52° WNW 04:08:47 19° SW
CZ-3B DEB 4.5 03:54:53 18° SW 04:06:47 85° NW 04:20:49 10° NE
Cosmos 2034 Rocket 4.4 04:01:18 10° NNW 04:07:17 44° W 04:12:21 14° SSW
ADEOS II 3.9 04:02:52 10° NE 04:07:24 29° E 04:11:55 10° SSE
ATLAS 3B CENTAUR R/B 4.0 03:55:07 10° W 04:08:04 32° SSW 04:13:44 10° SE
Cosmos 2227 Rocket 3.9 04:04:40 12° W 04:08:28 21° NW 04:12:44 10° N
Cosmos 1707 Rocket 4.5 04:12:17 10° NNW 04:16:08 30° W 04:18:44 17° SW
BREEZE M DEB (TANK) 3.8 04:15:57 14° S 04:17:30 21° SE 04:19:20 10° E
CZ-2D R/B 2.9 04:18:07 10° N 04:22:49 35° WNW 04:26:42 14° SW
Cosmos 2242 Rocket 3.8 04:19:30 10° NNW 04:23:54 55° W 04:28:19 10° S
MOZ.5/SAFIR/RUBIN 5/SL-8 3.9 04:19:39 10° S 04:24:20 57° W 04:29:04 10° NNW
Cosmos 2263 Rocket 3.4 04:22:18 10° S 04:27:24 38° ESE 04:32:31 10° NE
Cosmos 1933 3.3 04:23:38 10° N 04:27:45 78° W 04:31:50 10° S
CZ-3 R/B 4.2 03:43:30 10° W 04:30:00 53° SSW 04:40:42 10° SE
Cosmos 1455 4.3 04:28:41 10° WNW 04:30:09 12° W 04:31:12 11° WSW
Cosmos 1892 3.7 04:26:41 10° SSE 04:30:19 46° E 04:34:00 10° NNE
USA 161 0.6 04:30:02 15° S 04:31:28 49° W 04:33:22 10° NNW
Meteor 2-10 Rocket 3.4 04:28:57 10° N 04:33:59 84° W 04:39:02 10° S
Cosmos 1862 Rocket 3.5 04:30:59 10° NNW 04:35:18 65° W 04:39:33 10° S
Cosmos 1486 Rocket 4.1 04:31:21 11° SSW 04:36:17 66° WNW 04:41:31 10° NNE
In-Cosmos 22 Rocket 4.1 04:34:28 10° SSW 04:39:47 79° W 04:45:08 10° N
Cosmos 1933 Rocket 3.8 04:36:15 10° SSW 04:40:37 54° W 04:45:00 10° N
Cosmos 841 Rocket 3.5 04:35:43 10° NNW 04:41:00 76° WSW 04:46:15 10° SSE
Lacrosse 4 Rocket 2.8 04:39:11 10° WSW 04:42:35 25° NW 04:46:09 10° N
Cosmos 1400 Rocket 2.7 04:39:10 10° SSW 04:43:04 74° W 04:47:03 10° N
USA 102 3.0 04:40:04 10° NNE 04:43:26 69° ESE 04:45:03 12° SSW
Cosmos 371 Rocket 3.7 04:46:57 10° NW 04:51:28 41° WSW 04:55:57 10° S
Landsat 4 3.7 04:47:44 10° S 04:51:31 76° WSW 04:55:21 10° NNW
Meteor 1-26 Rocket 4.2 04:48:35 10° NNW 04:54:19 75° W 04:59:55 10° S
Cosmos 1703 Rocket 3.6 04:56:57 10° N 05:01:20 89° ENE 05:05:45 10° S
